Radiation Dose at Monitoring Post of Fukushima Daini Nuclear Power Station
Date,Time,MP-1(microSv/h),MP-2(microSv/h),MP-3(microSv/h),MP-4(microSv/h),MP-5(microSv/h),MP-6(microSv/h),MP-7(microSv/h),Wind Direction,Wind Velocity(m/s),Rain
2019/04/23,00:00,0.206,0.192,0.312,0.292,0.275,0.155,0.094,north,2.7,No
2019/04/23,00:10,0.205,0.192,0.313,0.293,0.278,0.155,0.095,north,2.5,No
2019/04/23,00:20,0.207,0.191,0.314,0.292,0.277,0.155,0.094,north-northwest,2.4,No
2019/04/23,00:30,0.206,0.191,0.312,0.293,0.274,0.155,0.094,north-northwest,2.0,No
2019/04/23,00:40,0.206,0.191,0.314,0.293,0.276,0.155,0.094,north-northwest,2.1,No
2019/04/23,00:50,0.205,0.192,0.314,0.292,0.275,0.155,0.094,northwest,1.8,No
2019/04/23,01:00,0.206,0.192,0.314,0.291,0.275,0.156,0.095,north-northwest,1.7,No
2019/04/23,01:10,0.205,0.191,0.312,0.294,0.276,0.156,0.094,west-northwest,1.9,No
2019/04/23,01:20,0.205,0.190,0.314,0.293,0.276,0.155,0.094,west-northwest,1.6,No
2019/04/23,01:30,0.206,0.192,0.314,0.293,0.277,0.155,0.094,northwest,0.9,No
2019/04/23,01:40,0.206,0.191,0.312,0.293,0.276,0.155,0.094,west-northwest,0.6,No
2019/04/23,01:50,0.205,0.191,0.311,0.293,0.275,0.155,0.094,-,CALM,No
2019/04/23,02:00,0.207,0.191,0.313,0.292,0.276,0.155,0.094,-,CALM,No
2019/04/23,02:10,0.206,0.192,0.313,0.294,0.276,0.156,0.095,-,CALM,No
2019/04/23,02:20,0.205,0.191,0.311,0.293,0.276,0.155,0.095,-,CALM,No
2019/04/23,02:30,0.206,0.191,0.313,0.292,0.275,0.154,0.095,west-northwest,0.6,No
2019/04/23,02:40,0.206,0.193,0.312,0.292,0.277,0.155,0.094,-,CALM,No
2019/04/23,02:50,0.205,0.192,0.312,0.294,0.276,0.155,0.094,-,CALM,No
2019/04/23,03:00,0.205,0.192,0.312,0.293,0.276,0.155,0.094,southwest,0.9,No
2019/04/23,03:10,0.205,0.192,0.313,0.292,0.277,0.156,0.095,southwest,1.1,No
2019/04/23,03:20,0.206,0.192,0.313,0.293,0.276,0.154,0.094,southwest,1.3,No
2019/04/23,03:30,0.205,0.191,0.313,0.293,0.275,0.155,0.094,south-southwest,1.1,No
2019/04/23,03:40,0.207,0.191,0.313,0.292,0.277,0.156,0.094,south-southwest,1.2,No
2019/04/23,03:50,0.206,0.192,0.312,0.292,0.275,0.156,0.095,south-southwest,1.2,No
2019/04/23,04:00,0.205,0.191,0.313,0.294,0.275,0.155,0.094,south-southwest,0.9,No
2019/04/23,04:10,0.205,0.191,0.313,0.293,0.277,0.155,0.094,south-southwest,1.2,No
2019/04/23,04:20,0.205,0.192,0.311,0.292,0.275,0.155,0.095,south-southwest,1.1,No
2019/04/23,04:30,0.205,0.192,0.313,0.292,0.276,0.156,0.095,southwest,1.5,No
2019/04/23,04:40,0.206,0.191,0.313,0.292,0.276,0.156,0.095,southwest,1.2,No
2019/04/23,04:50,0.206,0.191,0.313,0.292,0.276,0.156,0.095,south-southwest,0.7,No
2019/04/23,05:00,0.206,0.192,0.312,0.291,0.276,0.155,0.094,south-southwest,1.0,No
2019/04/23,05:10,0.206,0.192,0.313,0.292,0.275,0.155,0.094,south-southwest,1.4,No
2019/04/23,05:20,0.206,0.192,0.313,0.292,0.276,0.155,0.094,southwest,1.6,No
2019/04/23,05:30,0.205,0.191,0.313,0.292,0.276,0.154,0.094,south,1.2,No
2019/04/23,05:40,0.205,0.191,0.312,0.290,0.276,0.155,0.094,south-southeast,1.1,No
2019/04/23,05:50,0.205,0.191,0.315,0.291,0.278,0.154,0.095,south-southeast,1.0,No
2019/04/23,06:00,0.206,0.192,0.312,0.292,0.276,0.155,0.094,south,1.6,No
2019/04/23,06:10,0.205,0.192,0.312,0.292,0.277,0.155,0.094,south,1.3,No
2019/04/23,06:20,0.206,0.191,0.314,0.292,0.275,0.156,0.094,south,1.4,No
2019/04/23,06:30,0.206,0.191,0.312,0.291,0.277,0.156,0.094,south,1.7,No
2019/04/23,06:40,0.205,0.190,0.312,0.292,0.276,0.155,0.095,south-southeast,1.6,No
2019/04/23,06:50,0.206,0.191,0.315,0.292,0.277,0.154,0.094,south,1.3,No
2019/04/23,07:00,0.206,0.190,0.310,0.290,0.276,0.156,0.094,south-southwest,1.3,No
2019/04/23,07:10,0.206,0.191,0.313,0.291,0.277,0.155,0.094,southeast,0.8,No
2019/04/23,07:20,0.206,0.191,0.310,0.290,0.277,0.156,0.095,south,0.7,No
2019/04/23,07:30,0.205,0.191,0.313,0.291,0.276,0.154,0.094,south-southeast,1.1,No
2019/04/23,07:40,0.206,0.192,0.309,0.291,0.276,0.155,0.094,south-southeast,1.4,No
2019/04/23,07:50,0.206,0.191,0.314,0.291,0.276,0.154,0.094,south,0.9,No
2019/04/23,08:00,0.206,0.192,0.312,0.291,0.277,0.155,0.095,south-southeast,1.6,No
2019/04/23,08:10,0.206,0.191,0.315,0.290,0.277,0.155,0.095,-,CALM,No
2019/04/23,08:20,0.207,0.192,0.313,0.292,0.278,0.156,0.095,east,0.7,No
2019/04/23,08:30,0.206,0.192,0.314,0.290,0.277,0.155,0.095,south-southeast,1.2,No
2019/04/23,08:40,0.207,0.191,0.315,0.292,0.276,0.155,0.095,-,CALM,No
2019/04/23,08:50,0.205,0.192,0.314,0.292,0.276,0.156,0.096,east-southeast,0.8,No
2019/04/23,09:00,0.207,0.191,0.314,0.290,0.274,0.155,0.094,southeast,3.3,No
2019/04/23,09:10,0.205,0.193,0.312,0.293,0.279,0.155,0.095,-,CALM,No
2019/04/23,09:20,0.207,0.192,0.313,0.291,0.275,0.156,0.095,southeast,3.3,No
2019/04/23,09:30,0.205,0.193,0.312,0.289,0.275,0.155,0.095,east-southeast,0.6,No
2019/04/23,09:40,0.205,0.192,0.314,0.293,0.278,0.156,0.096,south-southeast,4.2,No
2019/04/23,09:50,0.203,0.191,0.311,0.291,0.274,0.155,0.094,south-southeast,6.6,No
2019/04/23,10:00,-,0.191,0.313,0.289,0.277,0.155,0.095,south-southeast,6.5,No
2019/04/23,10:10,-,0.190,0.312,0.293,0.277,0.156,0.095,south-southeast,3.4,No
2019/04/23,10:20,-,0.192,0.314,0.292,0.274,0.155,0.095,southeast,4.4,No
2019/04/23,10:30,-,0.191,0.311,0.291,0.279,0.155,0.095,south-southeast,4.9,No
2019/04/23,10:40,-,0.191,0.315,0.292,0.276,0.156,0.094,south-southeast,6.6,No
2019/04/23,10:50,-,0.191,0.312,0.291,0.274,0.153,0.094,south-southeast,7.7,No
2019/04/23,11:00,-,0.190,0.310,0.290,0.278,0.155,0.094,south-southeast,7.8,No
2019/04/23,11:10,-,0.193,0.313,0.292,0.276,0.154,0.094,south-southeast,7.6,No
2019/04/23,11:20,-,0.190,0.311,0.292,0.274,0.155,0.094,south-southeast,8.8,No
2019/04/23,11:30,-,0.191,0.309,0.290,0.278,0.155,0.095,south-southeast,8.9,No
2019/04/23,11:40,-,0.191,0.313,0.291,0.276,0.154,0.094,south-southeast,8.7,No
2019/04/23,11:50,-,0.191,0.312,0.293,0.273,0.155,0.094,south-southeast,9.8,No
2019/04/23,12:00,-,0.192,0.308,0.289,0.278,0.155,0.094,south-southeast,7.6,No
2019/04/23,12:10,-,0.191,0.312,0.293,0.277,0.155,0.094,south-southeast,8.1,No
2019/04/23,12:20,-,0.192,0.314,0.292,0.274,0.156,0.095,south-southeast,10.4,No
2019/04/23,12:30,-,0.191,0.309,0.290,0.277,0.155,0.094,south-southeast,9.3,No
2019/04/23,12:40,-,0.190,0.310,0.293,0.277,0.156,0.094,south-southeast,10.6,No
2019/04/23,12:50,-,0.192,0.313,0.293,0.276,0.155,0.094,south-southeast,7.7,No
2019/04/23,13:00,-,0.191,0.313,0.290,0.277,0.155,0.095,south-southeast,9.5,No
2019/04/23,13:10,-,0.192,0.310,0.293,0.276,0.156,0.095,-,CALM,No
2019/04/23,13:20,-,0.193,0.312,0.293,0.276,0.155,0.094,south-southeast,4.3,No
2019/04/23,13:30,-,0.192,0.315,0.291,0.276,0.155,0.095,south-southeast,5.9,No
2019/04/23,13:40,-,0.192,0.311,0.295,0.276,0.155,0.094,south-southeast,8.7,No
2019/04/23,13:50,-,0.192,0.310,0.291,0.276,0.155,0.095,south-southeast,10.0,No
2019/04/23,14:00,-,0.191,0.314,0.290,0.278,0.155,0.094,south-southeast,9.5,No
2019/04/23,14:10,-,0.192,0.312,0.294,0.275,0.155,0.095,south-southeast,10.3,No
2019/04/23,14:20,-,0.191,0.310,0.292,0.278,0.156,0.094,south-southeast,9.2,No
2019/04/23,14:30,-,0.193,0.313,0.292,0.278,0.156,0.095,south-southeast,8.7,No
2019/04/23,14:40,-,0.191,0.315,0.293,0.275,0.155,0.094,south-southeast,8.4,No
2019/04/23,14:50,-,0.191,0.310,0.290,0.276,0.155,0.095,south-southeast,9.5,No
2019/04/23,15:00,-,0.192,0.313,0.294,0.278,0.155,0.094,south-southeast,9.6,No
2019/04/23,15:10,-,0.191,0.312,0.291,0.274,0.155,0.095,south-southeast,10.9,No
2019/04/23,15:20,-,0.192,0.311,0.293,0.277,0.155,0.094,south-southeast,11.7,No
2019/04/23,15:30,0.205,0.191,0.314,0.292,0.277,0.155,0.094,south-southeast,10.7,No
2019/04/23,15:40,0.205,0.193,0.312,0.294,0.275,0.155,0.094,south-southeast,11.5,No
2019/04/23,15:50,0.204,0.191,0.314,0.293,0.278,0.156,0.094,south-southeast,11.5,No
2019/04/23,16:00,0.207,0.193,0.314,0.294,0.276,0.155,0.094,south-southeast,10.7,No
2019/04/23,16:10,0.206,0.191,0.315,0.293,0.277,0.155,0.094,south-southeast,11.4,No
2019/04/23,16:20,0.205,0.192,0.313,0.293,0.277,0.156,0.094,south-southeast,11.5,No
2019/04/23,16:30,0.206,0.192,0.313,0.292,0.275,0.155,0.094,south-southeast,10.4,No
2019/04/23,16:40,0.205,0.192,0.313,0.292,0.278,0.155,0.094,south,11.5,No
2019/04/23,16:50,0.206,0.190,0.315,0.293,0.275,0.155,0.094,south-southeast,12.0,No
2019/04/23,17:00,0.205,0.192,0.313,0.293,0.278,0.156,0.094,south,12.8,No
2019/04/23,17:10,0.206,0.192,0.315,0.293,0.277,0.155,0.094,south,12.0,No
2019/04/23,17:20,0.206,0.192,0.313,0.293,0.279,0.155,0.095,south,10.7,No
2019/04/23,17:30,0.206,0.192,0.316,0.293,0.276,0.154,0.094,south,10.6,No
2019/04/23,17:40,0.206,0.192,0.313,0.292,0.278,0.156,0.095,south,9.5,No
2019/04/23,17:50,0.207,0.192,0.314,0.294,0.277,0.155,0.094,south,8.9,No
2019/04/23,18:00,0.206,0.192,0.313,0.292,0.278,0.155,0.094,south,7.1,No
2019/04/23,18:10,0.208,0.192,0.315,0.293,0.276,0.155,0.095,south,8.1,No
2019/04/23,18:20,0.204,0.191,0.313,0.293,0.278,0.155,0.094,south,8.8,No
2019/04/23,18:30,0.207,0.191,0.314,0.294,0.276,0.155,0.095,south,8.7,No
2019/04/23,18:40,0.205,0.191,0.312,0.293,0.279,0.155,0.094,south,9.3,No
2019/04/23,18:50,0.206,0.191,0.314,0.293,0.275,0.156,0.094,south,8.4,No
2019/04/23,19:00,0.206,0.192,0.313,0.293,0.278,0.155,0.094,south,8.1,No
2019/04/23,19:10,0.206,0.192,0.312,0.292,0.276,0.156,0.095,south,7.9,No
2019/04/23,19:20,0.206,0.191,0.313,0.295,0.277,0.155,0.095,south,8.6,No
2019/04/23,19:30,0.206,0.192,0.312,0.292,0.278,0.155,0.094,south,8.4,No
2019/04/23,19:40,0.206,0.191,0.315,0.294,0.278,0.155,0.094,south,9.2,No
2019/04/23,19:50,0.205,0.191,0.314,0.292,0.276,0.155,0.095,south,9.0,No
2019/04/23,20:00,0.207,0.191,0.314,0.294,0.277,0.154,0.095,south,9.2,No
2019/04/23,20:10,0.205,0.192,0.314,0.293,0.278,0.156,0.094,south,9.5,No
2019/04/23,20:20,0.205,0.191,0.315,0.294,0.277,0.155,0.094,south,9.2,No
2019/04/23,20:30,0.206,0.191,0.312,0.295,0.277,0.155,0.094,south,9.8,No
2019/04/23,20:40,0.206,0.192,0.313,0.293,0.275,0.154,0.094,south,10.3,No
2019/04/23,20:50,0.207,0.191,0.315,0.294,0.278,0.155,0.094,south,9.5,No
2019/04/23,21:00,0.207,0.192,0.312,0.291,0.276,0.155,0.094,south,10.0,No
2019/04/23,21:10,0.206,0.192,0.314,0.293,0.276,0.156,0.094,south,10.7,No
2019/04/23,21:20,0.207,0.193,0.312,0.293,0.277,0.155,0.094,south,9.5,No
2019/04/23,21:30,0.206,0.193,0.315,0.292,0.277,0.156,0.095,south,10.4,No
2019/04/23,21:40,0.206,0.192,0.314,0.293,0.277,0.155,0.094,south,8.5,No
2019/04/23,21:50,0.205,0.192,0.313,0.293,0.275,0.155,0.095,south,10.4,No
2019/04/23,22:00,0.205,0.192,0.314,0.294,0.278,0.155,0.094,south,9.2,No
2019/04/23,22:10,0.206,0.192,0.314,0.293,0.274,0.155,0.094,south,9.8,No
2019/04/23,22:20,0.206,0.192,0.315,0.293,0.278,0.155,0.094,south,10.6,No
2019/04/23,22:30,0.207,0.192,0.312,0.293,0.276,0.155,0.094,south,9.8,No
2019/04/23,22:40,0.205,0.191,0.315,0.293,0.278,0.156,0.095,south,11.2,No
2019/04/23,22:50,0.206,0.192,0.313,0.294,0.276,0.156,0.094,south,10.9,No
2019/04/23,23:00,0.205,0.191,0.313,0.293,0.279,0.156,0.094,south,9.2,No
2019/04/23,23:10,0.206,0.192,0.313,0.294,0.276,0.156,0.094,south,9.2,No
2019/04/23,23:20,0.205,0.192,0.313,0.291,0.277,0.155,0.094,south,10.7,No
2019/04/23,23:30,0.206,0.191,0.315,0.293,0.277,0.156,0.094,south,9.2,No
2019/04/23,23:40,0.206,0.192,0.313,0.294,0.277,0.155,0.094,south,9.2,No
2019/04/23,23:50,0.206,0.191,0.314,0.293,0.278,0.156,0.094,south,8.5,No
